{"data":{"norad_id":43776,"epoch":"2026-05-25T02:07:26.956416Z","epoch_age_seconds":77563,"freshness":"FRESH","line1":"1 43776U 18099U   26145.08850644  .00001297  00000+0  93781-4 0  9997","line2":"2 43776  97.4395 186.3131 0021791  80.6071 279.7619 15.05539547408525","mean_motion":15.05539547,"eccentricity":0.0021791,"inclination_deg":97.4395,"raan_deg":186.3131,"arg_perigee_deg":80.6071,"mean_anomaly_deg":279.7619,"bstar":9.3781e-5,"rev_number":40852,"period_min":95.646773468648,"perigee_km":534.75320195482,"apogee_km":564.94675480399,"semimajor_km":6927.9869783794,"source":"CELESTRAK","updated_at":"2026-05-25T13:37:55.895077Z"}}